RH
55 52 58 68 54 61 69 65 57 41 40 49 36 34 38 42 44 41 44 33 44 60 66 68 63 61 53 53 50 46 47 50 51 56 63 68 64 62 62 61 58 57 54
53 56 54 67 57 58 61 57 51 57 57 39 30 42 42 33 39 35 43 43 31 41 54 64 66 57 62 57 57 51 47 52 54 61 66 67 67 63 62 62 61 59 56
47 56 49 53 70 58 52 51 41 57 47 41 36 43 39 35 30 45 46 50 43 41 42 52 60 58 58 50 53 57 55 51 49 45 51 56 61 60 60 57 59 59 57
44 43 57 55 60 60 49 51 48 69 51 62 46 45 43 38 31 40 42 42 47 51 43 41 49 56 56 55 53 51 51 52 51 48 49 57 54 53 54 58 60 66 64
36 40 53 54 51 71 56 50 52 58 57 51 54 39 43 40 45 41 35 40 40 45 46 44 39 47 54 52 46 46 47 50 54 52 54 60 61 59 60 61 64 68 74
32 36 49 60 52 56 48 50 52 49 47 49 50 44 43 39 43 43 43 45 35 42 44 38 45 49 45 41 46 48 48 50 51 56 55 56 56 58 58 55 55 60 69
31 44 54 70 54 49 48 46 47 55 47 43 43 42 43 36 37 45 41 36 38 45 42 31 34 43 39 39 38 35 38 41 46 48 51 52 54 54 56 59 58 59 61
36 46 48 51 53 55 52 45 47 54 42 45 53 52 51 52 51 50 39 35 35 36 34 35 39 32 34 40 27 27 26 26 29 31 33 37 38 39 39 40 40 41 42
31 44 45 45 54 51 53 49 41 47 46 43 48 52 54 53 53 54 51 48 43 46 42 44 39 35 36 30 25 22 22 22 23 24 25 25 27 28 28 26 26 26 26
28 33 32 40 42 44 45 51 41 46 47 41 38 50 54 54 52 54 53 52 50 46 47 50 50 45 40 40 41 34 30 29 28 28 27 27 27 27 26 25 24 24 25
27 26 32 32 35 35 45 48 43 41 41 48 43 44 48 51 55 58 57 55 53 53 54 52 54 51 48 46 46 46 37 36 35 35 35 36 36 35 35 34 34 33 32
29 28 30 32 31 34 40 46 43 37 41 45 45 45 43 46 55 57 61 58 54 55 54 52 51 49 53 52 50 48 43 38 36 35 35 38 39 43 46 49 50 52 49
26 25 27 32 32 29 35 37 40 38 36 40 41 43 50 58 60 58 58 59 57 55 54 51 51 52 49 50 48 48 45 41 39 37 43 47 46 47 50 52 52 53 55
28 29 30 29 27 28 29 39 36 40 38 36 34 39 45 54 56 53 54 54 55 56 55 53 52 49 47 46 45 45 43 43 40 42 44 44 45 46 47 48 48 49 52
25 29 28 27 26 27 25 31 38 35 38 39 35 33 42 47 53 54 52 49 49 54 55 54 51 47 45 45 43 43 40 39 42 42 45 44 44 45 43 46 49 48 50
21 30 25 26 27 26 25 26 33 34 37 39 38 34 35 39 47 53 53 50 45 46 48 51 50 50 49 48 45 46 43 41 44 45 45 46 46 45 46 49 48 47 47
26 26 31 28 28 28 24 23 26 33 34 37 38 38 37 38 44 49 51 51 48 47 47 48 54 53 52 50 50 51 50 50 47 49 52 51 50 48 47 49 48 47 43
24 28 32 34 30 26 24 23 19 26 34 35 36 36 38 40 45 48 51 49 46 47 49 52 53 55 55 55 53 52 52 54 57 55 56 48 50 50 46 50 49 43 32
25 25 27 29 27 24 22 22 21 19 27 35 36 37 38 40 41 45 47 48 49 48 50 50 54 55 55 55 54 54 55 60 59 57 52 49 51 46 49 46 42 35 25
25 26 25 26 29 28 26 22 22 21 20 25 33 37 36 36 40 42 42 42 44 47 48 50 54 57 59 58 59 57 56 59 59 59 52 55 49 46 44 41 39 32 27
28 27 26 28 31 31 31 29 22 21 21 20 23 30 33 34 34 35 35 38 40 43 46 46 48 54 60 64 64 62 62 62 62 67 65 56 50 51 45 39 36 32 30
35 34 28 29 30 33 35 36 34 24 20 20 20 22 27 29 29 31 33 36 37 39 42 46 47 47 55 61 63 66 66 66 62 63 65 67 57 47 45 42 35 32 25
38 35 34 32 31 33 35 38 39 37 34 27 23 20 22 22 25 27 30 33 35 37 40 45 48 50 51 59 66 68 70 69 66 66 66 68 62 44 39 30 25 21 20
41 41 37 36 35 34 35 37 40 42 40 37 33 27 22 21 23 24 25 29 31 34 36 40 45 53 58 65 69 71 73 73 68 69 68 67 71 54 31 26 20 19 18
48 45 42 40 38 37 41 42 45 48 46 42 41 36 33 31 30 30 29 26 27 33 35 40 47 54 59 63 68 70 73 68 66 63 66 65 65 51 31 23 18 18 17
49 48 41 38 42 43 46 48 52 56 52 49 49 45 42 40 40 37 37 36 37 34 38 42 47 53 57 59 68 76 79 74 71 72 70 69 71 48 30 22 17 19 18